Regional Weather Roundup
Issued by NWS Green Bay, WI

Home | Current Version | Previous Version | Text Only | Print | Product List | Glossary On
Versions: 1 2 3 4 5 6 7 8 9 10 11 12 13 14 15 16 17 18 19 20 21 22 23 24 25 26 27 28 29 30 31 32 33 34 35 36 37 38 39 40 41 42 43 44 45 46 47 48 49 50
000
ASUS43 KGRB 262310
RWRGRB

NORTH-CENTRAL AND NORTHEAST WISCONSIN REGIONAL WEATHER ROUNDUP
NATIONAL WEATHER SERVICE GREEN BAY WI
500 PM CST FRI DEC 26 2014

WIZ005-009-010>012-018-019-270000-
NORTH CENTRAL WISCONSIN

CITY           SKY/WX    TMP DP  RH WIND       PRES   REMARKS
IRONWOOD       CLOUDY    30  28  93 N6        30.02R
MANITOWISH WTR FLURRIES  30  30 100 N3        30.01R
ARBOR VITAE    CLOUDY    32  30  92 CALM      30.00R
EAGLE RIVER    CLOUDY    30  30  99 CALM      29.99R
LAND O LAKES   CLOUDY    31  30  96 CALM      30.01R
RHINELANDER    CLOUDY    30  28  92 NE5       30.00R
PHILLIPS       CLOUDY    31  28  92 N7        29.99S
ANTIGO         CLOUDY    32  32 100 NE6       29.98R FOG
TOMAHAWK       CLOUDY    31  28  90 CALM      30.00R
MERRILL        CLOUDY    33  32  98 CALM      29.99R FOG
$$

WIZ013-073-270000-
NORTHEAST WISCONSIN

CITY           SKY/WX    TMP DP  RH WIND       PRES   REMARKS
IRON MOUNTAIN  CLOUDY    32  29  88 N5        30.00R
MARINETTE      CLOUDY    36  32  87 E3        30.01R
OCONTO         CLOUDY    34  34 100 CALM      30.02R
$$

WIZ017-030-035>037-045-270000-
CENTRAL WISCONSIN

CITY           SKY/WX    TMP DP  RH WIND       PRES   REMARKS
MEDFORD        CLOUDY    32  30  93 NE6       29.98R
WAUSAU         CLOUDY    34  31  88 CALM      29.98R
MOSINEE        CLOUDY    34  34 100 E3        29.99R
MARSHFIELD     CLOUDY    34  30  85 NE10      29.98R
WISC RAPIDS    CLOUDY    35  30  82 NE6       29.99R
STEVENS POINT  CLOUDY    31  31  99 NE5       29.99S FOG
WAUPACA        CLOUDY    34  33  96 N5        30.00R FOG
SHAWANO        CLOUDY    34  33  96 NE5       30.02R FOG
CLINTONVILLE   CLOUDY    32  32 100 N6        30.01R FOG
$$

WIZ038-039-048-051-270000-
FOX VALLEY

CITY           SKY/WX    TMP DP  RH WIND       PRES   REMARKS
NWS GREEN BAY  CLOUDY    36  34  92 N7        30.01R
APPLETON       CLOUDY    34  34 100 N7        29.99R FOG
OSHKOSH        CLOUDY    40  34  79 CALM      29.99R
FOND DU LAC    PTCLDY    40  34  79 MISG      29.98R
$$

WIZ022-050-052-270000-
EAST CENTRAL WISCONSIN

CITY           SKY/WX    TMP DP  RH WIND       PRES   REMARKS
STURGEON BAY   CLOUDY    36  32  87 CALM      30.03R
MANITOWOC      PTCLDY    38  37  97 CALM      30.00R
SHEBOYGAN      MOCLDY    38  34  85 S5        29.99R
$$

LMZ563-521-522-541>543-270000-
LAKESHORE

STATION/POSITION TIME  TEMP    WIND        PRES    VSBY  WAVE
                       AIR SEA DIR/SP/G                  HT/PER
                 (UTC) (F)     (DEG/KT/KT) (MB)    (MI)  (FT/S)
SHEBOYGAN LKSHOR 2300   43 39  180/  5/  5 1016.4R
KEWAUNEE LKSHORE 2300   37     330/  1/  3 1015.2R
ALGOMA MARINA    2300          350/  8/  9   N/A
NORTHPORT PIER   2300   35     310/  2/  3 1016.6R
SISTER BAY LKSHO 2300           30/  6/  8   N/A
STURGEON BAY CG  2200   37                   N/A
CHAMBERS ISLAND  2300   35      10/  5/  8 1016.9R
MENOMINEE LKSHOR 2300   34      20/  9/ 10 1017.1R
$$



USA.gov is the U.S. government's official web portal to all federal, state and local government web resources and services.